Regional Weather Roundup
Issued by NWS Kansas City/Pleasant Hill, MO

Home | Current Version | Previous Version | Graphics & Text | Print | Product List | Glossary Off
Versions: 1 2 3 4 5 6 7 8 9 10 11 12 13 14 15 16 17 18 19 20 21 22 23 24 25 26 27 28 29 30 31 32 33 34 35 36 37 38 39 40 41 42 43 44 45 46 47 48 49 50

000
ASUS43 KEAX 280311
RWREAX

WEATHER ROUNDUP FOR EASTERN KANSAS AND NORTHWEST MISSOURI
NATIONAL WEATHER SERVICE KANSAS CITY/PLEASANT HILL MO
1000 PM CDT SUN JUL 27 2014

KSZ040-057-103>105-MOZ028-029-037-043-280400-
...KANSAS CITY METROPOLITAN AREA...

CITY           SKY/WX    TMP DP  RH WIND       PRES   REMARKS
K.C. INTL      CLEAR     70  59  68 N9        30.11R
K.C. DOWNTOWN  CLEAR     76  59  55 N8        30.09R
LEES SUMMIT    CLEAR     73  58  59 N8        30.10R
OLATHE - IXD   CLEAR     72  59  63 N9        30.11R
OLATHE - OJC   CLEAR     76  57  51 N9        30.10R
LAWRENCE       CLEAR     72  58  61 N9        30.11R

$$

MOZ001>008-011>017-020>025-030>033-038>040-044>046-053-054-280400-
...NORTHERN AND CENTRAL MISSOURI...

CITY           SKY/WX    TMP DP  RH WIND       PRES   REMARKS
ST. JOSEPH     CLEAR     68  60  75 N8        30.12R
MOSBY          CLEAR     72  59  64 NW3       30.10R
WHITEMAN AFB   CLEAR     73  48  41 N12       30.07R
CLINTON        CLEAR     72  61  68 CALM      30.07R
SEDALIA        CLEAR     71  60  68 NW8       30.07R
WARSAW         NOT AVBL
MARSHALL       CLEAR     75  61  60 N7        30.08R
CHILLICOTHE      N/A     72  57  59 N3        30.10R
MOBERLY        CLEAR     68  55  64 NW7       30.07R
KIRKSVILLE     CLEAR     68  57  68 NW8       30.07R

$$

MOZ041-047>049-056>058-063>065-088>090-097-280400-
...EASTERN AND SOUTHERN MISSOURI...

CITY           SKY/WX    TMP DP  RH WIND       PRES   REMARKS
ST. LOUIS INTL PTCLDY    76  59  55 NW9       29.99R
SPIRIT OF STL  CLEAR     76  59  55 NW9       29.99R
COLUMBIA       CLEAR     73  59  61 N10       30.05R
JEFFERSON CITY CLEAR     77  57  50 NW9       30.02R
MEXICO         CLEAR     72  63  73 NW6       30.04R
HANNIBAL       CLEAR     70  55  60 NW7       30.04R
ROLLA          CLEAR     75  56  51 NW8       30.01S
LEBANON        CLEAR     75  55  50 NW7       30.06R
OSAGE BEACH      N/A     77  55  47 N5        30.04R
SPRINGFIELD    CLEAR     72  58  61 N8        30.05R
BRANSON        PTCLDY    73  64  73 NW5       30.06R
NEVADA         CLEAR     72  61  68 N5        30.09R
JOPLIN         CLEAR     75  61  61 NW3       30.07R
WEST PLAINS    CLEAR     78  58  49 NW8       30.04R
MALDEN         CLEAR     81  66  61 NW6       29.93R

$$

IAZ060-094-KSZ022-034>040-054-083-096-NEZ052-066-093-280400-
...KANSAS...SOUTHEAST NEBRASKA AND IOWA...

CITY           SKY/WX    TMP DP  RH WIND       PRES   REMARKS
TOPEKA         CLEAR     74  58  57 N8        30.12R
MANHATTAN      CLEAR     75  58  55 N3        30.14R
EMPORIA        CLEAR     74  54  49 N7        30.13R
CHANUTE        CLEAR     75  57  53 N6        30.09R
WICHITA        PTCLDY    80  52  37 N8        30.13R
OMAHA          PTCLDY    67  57  70 N7        30.15R
LINCOLN        CLEAR     71  56  58 N5        30.18R
LAMONI         CLEAR     66  56  70 N9        30.11R
DES MOINES     CLEAR     69  57  65 NW10      30.08R

$$



USA.gov is the U.S. government's official web portal to all federal, state and local government web resources and services.